Home   Weather   La-Chaux-de-Fonds   Past weeks

Flag for Switzerland Past Weather in La-Chaux-de-Fonds, Neuchâtel, Switzerland — Yesterday and Last 2 Weeks

41 °F

Sprinkles. Broken clouds.

Feels Like: 36 °F
Forecast: 29 / 44 °F
Wind: 7 mph from West

Location: Les Eplatures

Current Time: Oct 21, 2016 at 3:13:21 PM

Latest Report: Oct 21, 2016 at 2:20 PM

Visibility: N/A

Pressure: 29.98 "Hg (26.51 "Hg at 1000m altitude)

Humidity: 87%

Dew Point: 37 °F

Location of La-Chaux-de-FondsLocation

Past Weather in La-Chaux-de-Fonds — Graph


La-Chaux-de-Fonds Temperature Yesterday

Maximum temperature yesterday: 43 °F (at 1:50 PM)
Minimum temperature yesterday: 36 °F (at 8:20 AM)
Average temperature yesterday: 39 °F

High & Low Weather Summary for the Past Weeks

High61 °F (Oct 16, 12:50 PM)100% (Oct 7, 4:20 AM)30.30 "Hg (Oct 7, 4:20 AM)
Low28 °F (Oct 10, 2:50 AM)48% (Oct 16, 2:20 PM)29.62 "Hg (Oct 14, 5:20 PM)
Average42 °F88%30.04 "Hg
* Reported Oct 6 1:20 PM — Oct 21 1:50 PM, La-Chaux-de-Fonds, Weather by CustomWeather, © 2016

Note: Actual official high and low records may vary slightly from our data, if they occured in-between our weather recording intervals... More about our weather records


La-Chaux-de-Fonds Weather History for the Previous 24 Hours

Scroll right to see more
Time TempWeatherWind HumidityBarometerVisibility
1:50 PM
Fri, Oct 21
41 °FDrizzle. Broken clouds.8 mph87%29.98 "HgN/A
1:20 PM41 °FBroken clouds.6 mph87%29.98 "HgN/A
12:50 PM41 °FBroken clouds.7 mph87%29.98 "HgN/A
12:20 PM39 °FLight rain. Partly sunny.3 mph93%29.98 "HgN/A
11:50 AM39 °FLight rain. Partly sunny.6 mph87%29.98 "Hg4 mi
11:20 AM39 °FLight rain. Partly sunny.6 mph87%29.98 "HgN/A
10:50 AM39 °FLight rain. Broken clouds.5 mph93%29.98 "Hg6 mi
10:20 AM39 °FDrizzle. Broken clouds.3 mph93%29.98 "HgN/A
9:50 AM39 °FBroken clouds.5 mph93%29.98 "HgN/A
9:20 AM39 °FSprinkles. Fog.8 mph93%29.95 "Hg3 mi
8:50 AM39 °FPartly cloudy.5 mph93%29.95 "HgN/A
8:20 AM39 °FSprinkles. Partly cloudy.6 mph93%29.95 "Hg4 mi
7:50 AM39 °FPartly cloudy.5 mph93%29.95 "HgN/A
7:20 AM39 °FLow clouds.6 mph93%29.95 "HgN/A
6:50 AM39 °FLight rain. Passing clouds.6 mph93%29.95 "HgN/A
6:20 AM39 °FPassing clouds.7 mph93%29.95 "Hg4 mi
5:50 AM39 °FLight rain. Low clouds.5 mph93%29.95 "Hg3 mi
5:20 AM39 °FLight rain. Partly cloudy.6 mph93%29.95 "HgN/A
4:50 AM39 °FLight rain. Passing clouds.5 mph93%29.95 "Hg3 mi
4:20 AM37 °FDrizzle. Low clouds.5 mph100%29.95 "HgN/A
3:50 AM37 °FLow clouds.5 mph100%29.95 "HgN/A
3:20 AM37 °FLow clouds.5 mph100%29.95 "HgN/A
2:50 AM37 °FLow clouds.5 mph93%29.98 "HgN/A
2:20 AM37 °FLow clouds.5 mph93%29.98 "HgN/A
1:50 AM37 °FLow clouds.5 mph100%29.98 "HgN/A
1:20 AM37 °FPassing clouds.6 mph93%29.98 "HgN/A
12:50 AM37 °FLow clouds.6 mph100%29.98 "HgN/A
12:20 AM37 °FLow clouds.7 mph93%29.98 "HgN/A
11:50 PM
Thu, Oct 20
37 °FLow clouds.6 mph93%29.98 "HgN/A
11:20 PM37 °FPartly cloudy.6 mph100%29.98 "HgN/A
10:50 PM39 °FPassing clouds.6 mph93%30.01 "HgN/A
10:20 PM39 °FPartly cloudy.5 mph87%29.98 "HgN/A
9:50 PM39 °FMostly cloudy.3 mph93%29.98 "HgN/A
9:20 PM39 °FOvercast.3 mph93%29.98 "HgN/A
8:50 PM39 °FPassing clouds.6 mph93%29.98 "HgN/A
8:20 PM39 °FPassing clouds.7 mph93%29.98 "HgN/A
7:50 PM39 °FPartly cloudy.6 mph93%29.98 "HgN/A
7:20 PM39 °FDrizzle. Broken clouds.6 mph93%29.98 "HgN/A
6:50 PM39 °FSprinkles. Broken clouds.5 mph93%29.98 "HgN/A
6:20 PM39 °FDrizzle. Mostly cloudy.3 mph93%29.98 "Hg4 mi
5:50 PM41 °FDrizzle. Broken clouds.5 mph87%29.98 "HgN/A
5:20 PM43 °FBroken clouds.5 mph81%29.98 "HgN/A
4:50 PM43 °FPartly sunny.6 mph76%29.98 "HgN/A
4:20 PM43 °FBroken clouds.5 mph76%29.98 "HgN/A
3:50 PM41 °FPartly sunny.5 mph81%29.98 "HgN/A
3:20 PM43 °FScattered clouds.6 mph76%29.98 "HgN/A
Weather by CustomWeather, © 2016

See weather overviewHow to use our weather pages